Regional Weather Roundup
Issued by NWS Bismarck, ND

Home | Current Version | Previous Version | Text Only | Print | Product List | Glossary On
Versions: 1 2 3 4 5 6 7 8 9 10 11 12 13 14 15 16 17 18 19 20 21 22 23 24 25 26 27 28 29 30 31 32 33 34 35 36 37 38 39 40 41 42 43 44 45 46 47 48 49 50
000
ASUS43 KBIS 231220
RWRBIS

NWR BROADCAST TEXT
NATIONAL WEATHER SERVICE BISMARCK ND
700 AM CDT SAT AUG 23 2014

NOTE: "FAIR" INDICATES FEW OR NO CLOUDS BELOW 12,000 FEET WITH NO
SIGNIFICANT WEATHER AND/OR OBSTRUCTIONS TO VISIBILITY.


CITY           SKY/WX    TMP DP  RH WIND       PRES   REMARKS
WILLISTON      CLOUDY    58  52  80 NE16      30.07F
MINOT          CLOUDY    56  54  93 N10       30.09F
MINOT AFB      CLOUDY    56  56  99 NE12      30.09F
BISMARCK       CLOUDY    62  58  86 NE16      30.03S
DICKINSON      LGT RAIN  59  58  96 E20       30.00R FOG
GARRISON         N/A     58  56  93 E13       30.07R
HETTINGER ARPT LGT RAIN  62  60  93 E18G26    29.97F
JAMESTOWN      CLOUDY    61  59  93 NE10      30.04S FOG
BEACH          LGT RAIN  59  59 100 E20G25    29.99S
CARRINGTON     CLOUDY    57  57 100 NE14      30.07S
CROSBY         CLOUDY    54  54 100 NE14G23   30.13F
HARVEY         CLOUDY    55  55 100 NE13      30.07F
HAZEN          CLOUDY    59  55  88 NE14G21   30.05F
LINTON         LGT RAIN  61  61 100 NE12G17   29.98F
MANDAN         CLOUDY    59  57  94 NE13G24   30.03F
OAKES          FOG       63  63 100 NE10      30.00F VSB 1
RUGBY          CLOUDY    55  55 100 NE14G21   30.10S
STANLEY        CLOUDY    55  55 100 E13G18    30.10S
TIOGA          CLOUDY    54  54 100 NE17G23   30.12S
WATFORD CITY   CLOUDY    57  54  88 E15G21    30.04S
$$

CITY           SKY/WX    TMP DP  RH WIND       PRES   REMARKS
GRAND FORKS    CLOUDY    61  59  94 N13       30.05S
GRAND FORKS AF CLOUDY    59  59 100 N10       30.07S
DEVILS LAKE    CLOUDY    57  52  82 NE15      30.07S
FARGO          FOG       65  64  97 NE7       30.01S VSB 3/4
CANDO          CLOUDY    55  54  94 NE10      30.11S
CAVALIER       CLOUDY    55  55 100 N9        30.11S FOG
GRAFTON        CLOUDY    57  57 100 N13       30.08S
GWINNER        CLOUDY    64  64 100 NE12      30.01F VSB 1/2
LANGDON        CLOUDY    55  55 100 NE14G21   30.11S
ROLLA          CLOUDY    54  54 100 NE13      30.14S FOG
WALHALLA       FOG       55  55 100 N12G17    30.12S VSB 1
$$

CITY           SKY/WX    TMP DP  RH WIND       PRES   REMARKS
ABERDEEN       CLOUDY    64  64 100 NE14      29.96S FOG
MOBRIDGE       LGT RAIN  63  63 100 E20G29    29.92S FOG
BUFFALO          N/A     63  62  97 E18G25    29.86F
RAPID CITY     LGT RAIN  64  60  87 CALM      29.91F
GLASGOW        RAIN      56  54  93 NE22G30   30.03F FOG
SIDNEY         CLOUDY    57  57 100 NE16      30.04S
WOLF POINT     RAIN      57  54  89 NE24G33   30.02S FOG
GLENDIVE       CLOUDY    59  59 100 E20G25    29.99R
MILES CITY     LGT RAIN  63  61  93 NE7       29.91S
BAKER          HVY RAIN  62  61  96 E16       29.95F FOG
$$

CITY           SKY/WX    TMP DP  RH WIND       PRES   REMARKS
BILLINGS       LGT RAIN  59  58  96 SW9       29.90F VSB 1
GREAT FALLS    RAIN      48  48 100 NW16      30.08S FOG
REGINA         CLOUDY    54  48  82 NE15      30.21S
ESTEVAN        CLOUDY    54  52  94 E13       30.15S
$$



USA.gov is the U.S. government's official web portal to all federal, state and local government web resources and services.